STARLINK-32362, 61845

Orbit data source: Space-Track

STARLINK-32362, 61845 is a payload satellite owned by SpaceX/Seattle (US) in LEO that was launched on Thu, 07 Nov 2024 UTC via an FALCON 9 launch vehicle from the Air Force Eastern Test Range (AFETR). Payload-class satellites include a variety of spacecraft equipped with specific instruments for various scientific and technological missions. These include communications satellites like Starlink; space stations such as the ISS; scientific satellites like the Hubble; Earth observation satellites from companies like Planet Labs, Umbra, and HawkEye 360; GPS; miniature CubeSats for education and research; and military/defense satellites.

Loading next visibility...
Identifier
61845, 2024-202A
Orbit
LEO
Last TLE update
1 day ago
Origin
Manufacturer
SpaceX/Seattle
Mission
Operational Commercial Communications
Bus & Motor
STARLINK V2M, Unknown motor
Mass
730 kg wet, ~700 kg dry
Launch date (UTC)
2024-11-07 (8 months ago)
Launch vehicle
FALCON 9
Launch site
Air Force Eastern Test Range (AFETR)
Object type
Payload
Rocket body
Debris
Shape & HBR
Box + 2 Pan, 29 m
Radar Cross Section
33.884 m², Large (>1 m²)

Expand to show TLE details & history

TLE from 1 day ago
0 STARLINK-32362
1 61845U 24202A   25181.07762652  .00000172  00000-0  15464-4 0  9990
2 61845  43.0010 213.3918 0001915 274.7615  85.3018 15.28407789 37410
Epoch: 2025-06-30T01:51Z
TLE epoch observation values (Epoch: 2025-06-30T01:51:46.931Z)
Latitude
-0.00003°
Longitude
-92.94638°
Altitude
480.24 km
Speed
7.627 km/s
True Right ascension
14h 13m 34s
True Declination
0° 00' 00"
Sunlit
Object was in full shadow at epoch
Visualization orbit readout
Latitude
-39.26975°
Longitude
-160.21261°
Altitude
491.02 km
Speed
7.621 km/s
Apparent Right ascension
07h 41m 07s
Apparent Declination
-44° 11' 11"
Sunlit
Object is in daylight
Visualization observer readout
Local Sidereal Time
17:25:39
Azimuth
249.108° W
Elevation
-64.677°
Doppler factor
1
Orbital elements
Apogee altitude
483.831 km
Perigee altitude
481.203 km
Semi-major axis
6,860.654 km
Eccentricity
0.00019
Inclination
43.001°
RAAN
213.3918°
Arg. of periapsis
274.7615°
True anomaly
Unknown
Mean anomaly
85.3018°
Eccentric anomaly
Unknown
Mean motion
3.8194 °/min
Orbital period
94.26 mins
BSTAR
0.000015464
Loading maneuver chart data...
Loading SW <> Apogee altitude chart data...
Loading historical data...
Loading historical data...
Loading historical data...
Loading historical data...
Loading historical data...
Loading historical data...
Loading historical data...

STARLINK-32362 Visibility forecast

Observer location: undefined°, undefined°

Span
Click to sort rows by Start time (UTC) header in descending order
Start Az.
Max El. time (UTC)
Max El. Az.
Max El.
End time (UTC)
End Az.
6 mins2025-07-01 06:20:58.591Z251.392° W2025-07-01 06:23:58.591Z286.997° WNW44.989°2025-07-01 06:26:58.591Z71.707° E
5 mins2025-07-01 08:00:58.591Z291.112° WNW2025-07-01 08:02:58.591Z352.019° N37.874°2025-07-01 08:05:58.591Z73.288° E
5 mins2025-07-01 09:39:58.591Z290.304° WNW2025-07-01 09:41:58.591Z319.702° NNW44.235°2025-07-01 09:44:58.591Z104.745° ESE
4 mins2025-07-01 11:18:58.591Z255.938° W2025-07-01 11:20:58.591Z209.152° SW23.503°2025-07-01 11:22:58.591Z166.228° S
4 mins2025-07-02 04:14:58.591Z185.103° SSW2025-07-02 04:16:58.591Z142.908° SSE20.593°2025-07-02 04:18:58.591Z102.917° ESE
|